�N����,����,�~����,�C��,���x,�C��,����,���ϕ���,�ő�u�ԕ���,�ő厞����,���˗�,�I�_���x,�n�����x,�ő啗���N��,DTYPE
"19/04/20","00:10",0.0,8.8,81.1,1010.7,314.2,2.0,3.1,326.3,0.00,5.8,13.0,"00:05:06",1
"19/04/20","00:20",0.0,8.5,82.7,1010.7,286.6,1.7,2.2,312.6,0.00,5.8,12.7,"00:12:08",1
"19/04/20","00:30",0.0,8.2,83.1,1011.2,295.6,1.3,2.4,311.4,0.00,5.5,12.8,"00:29:20",1
"19/04/20","00:40",0.0,7.8,84.3,1010.9,301.4,1.3,2.6,323.8,0.00,5.4,12.9,"00:32:08",1
"19/04/20","00:50",0.0,7.8,85.4,1010.7,298.3,1.3,3.3,312.4,0.00,5.5,12.7,"00:42:48",1
"19/04/20","01:00",0.0,7.9,85.8,1010.7,290.0,1.8,3.7,319.4,0.00,5.7,12.7,"00:52:02",1
"19/04/20","01:10",0.0,7.8,85.7,1010.4,313.1,1.5,3.7,323.7,0.00,5.6,12.5,"01:09:36",1
"19/04/20","01:20",0.0,7.6,87.2,1010.7,285.6,1.7,2.5,330.5,0.00,5.7,12.6,"01:10:16",1
"19/04/20","01:30",0.0,7.4,87.0,1010.4,309.9,2.0,3.2,326.9,0.00,5.4,12.3,"01:27:20",1
"19/04/20","01:40",0.0,7.0,87.2,1010.4,304.3,1.3,2.7,329.2,0.00,5.1,12.5,"01:39:44",1
"19/04/20","01:50",0.0,7.1,88.6,1010.2,323.7,2.0,3.3,330.1,0.00,5.4,12.2,"01:45:12",1
"19/04/20","02:00",0.0,7.0,88.9,1010.0,311.7,2.2,3.1,312.8,0.00,5.3,12.2,"01:55:20",1
"19/04/20","02:10",0.0,6.9,88.8,1009.7,312.1,2.0,2.8,311.5,0.00,5.2,12.0,"02:07:20",1
"19/04/20","02:20",0.0,6.9,89.4,1010.0,328.1,2.1,2.7,324.7,0.00,5.3,12.2,"02:17:52",1
"19/04/20","02:30",0.0,6.7,89.2,1010.2,319.0,2.1,3.4,325.3,0.00,5.1,12.1,"02:28:24",1
"19/04/20","02:40",0.0,6.5,90.4,1010.0,314.5,1.8,2.6,330.4,0.00,5.1,11.9,"02:30:16",1
"19/04/20","02:50",0.0,6.4,90.7,1010.0,302.5,1.7,2.5,316.9,0.00,5.0,11.9,"02:45:28",1
"19/04/20","03:00",0.0,6.0,90.7,1009.7,298.2,2.1,2.7,321.9,0.00,4.6,11.9,"02:50:08",1
"19/04/20","03:10",0.0,5.9,91.7,1009.7,304.8,2.2,3.3,327.4,0.00,4.7,11.8,"03:09:44",1
"19/04/20","03:20",0.0,6.1,91.6,1010.2,302.2,2.2,3.5,316.6,0.00,4.9,11.7,"03:12:16",1
"19/04/20","03:30",0.0,6.0,91.9,1010.2,307.4,2.1,2.8,304.1,0.00,4.8,11.8,"03:20:32",1
"19/04/20","03:40",0.0,5.9,92.2,1010.2,315.5,1.7,2.5,331.4,0.00,4.8,11.7,"03:36:00",1
"19/04/20","03:50",0.0,5.7,92.3,1010.4,313.6,1.7,2.1,317.8,0.00,4.6,11.6,"03:44:32",1
"19/04/20","04:00",0.0,5.5,92.5,1010.4,297.2,1.7,2.2,321.1,0.00,4.4,11.7,"03:50:24",1
"19/04/20","04:10",0.0,5.4,92.7,1010.2,298.4,1.8,2.5,323.4,0.00,4.4,11.4,"04:05:52",1
"19/04/20","04:20",0.0,5.4,93.3,1010.4,297.2,2.0,3.1,318.8,0.00,4.4,11.4,"04:19:28",1
"19/04/20","04:30",0.0,5.5,93.2,1010.7,302.3,2.2,3.9,331.3,0.00,4.5,11.5,"04:20:08",1
"19/04/20","04:40",0.0,5.3,93.1,1010.4,291.1,1.5,2.5,319.3,0.00,4.3,11.4,"04:38:16",1
"19/04/20","04:50",0.0,5.4,93.9,1010.4,304.2,1.7,2.2,322.0,0.00,4.5,11.2,"04:41:12",1
"19/04/20","05:00",0.0,5.2,93.6,1010.4,302.6,1.7,2.5,319.2,0.00,4.3,11.2,"04:56:40",1
"19/04/20","05:10",0.0,5.0,93.8,1010.7,289.0,1.8,2.6,315.0,0.00,4.1,11.0,"05:02:00",1
"19/04/20","05:20",0.0,5.1,94.5,1010.9,278.7,1.7,2.5,263.8,0.00,4.3,10.8,"05:19:24",1
"19/04/20","05:30",0.0,5.1,94.3,1011.2,295.4,1.8,2.4,285.8,0.00,4.3,11.2,"05:20:08",1
"19/04/20","05:40",0.0,5.1,94.5,1011.4,304.8,2.0,3.2,320.3,0.00,4.3,11.0,"05:36:40",1
"19/04/20","05:50",0.0,5.3,94.5,1011.4,312.3,2.3,3.5,318.7,0.00,4.5,10.9,"05:42:08",1
"19/04/20","06:00",0.0,5.1,94.8,1011.2,297.2,1.5,1.9,319.4,0.00,4.4,11.0,"05:50:16",1
"19/04/20","06:10",0.0,5.0,94.6,1011.6,296.9,1.8,2.4,324.8,0.00,4.2,10.8,"06:01:52",1
"19/04/20","06:20",0.0,5.4,94.7,1011.2,314.2,2.6,4.2,315.6,0.00,4.7,10.8,"06:12:00",1
"19/04/20","06:30",0.0,5.9,94.5,1011.2,312.1,1.6,2.4,324.2,0.00,5.1,11.0,"06:23:20",1
"19/04/20","06:40",0.0,6.4,94.4,1011.4,297.2,1.8,2.6,315.9,0.01,5.6,10.9,"06:30:24",1
"19/04/20","06:50",0.0,7.2,94.1,1011.4,291.4,1.5,2.1,306.8,0.02,6.4,10.9,"06:40:56",1
"19/04/20","07:00",0.0,7.7,93.3,1011.4,267.1,1.2,2.1,240.1,0.03,6.7,11.1,"06:57:04",1
"19/04/20","07:10",0.0,8.5,89.8,1011.6,263.8,1.0,1.6,256.9,0.05,7.0,11.1,"07:02:08",1
"19/04/20","07:20",0.0,9.4,84.6,1011.6,260.6,1.2,1.7,253.8,0.07,7.0,11.1,"07:16:24",1
"19/04/20","07:30",0.0,9.6,80.8,1012.6,270.3,1.6,3.1,298.5,0.10,6.5,10.9,"07:29:04",1
"19/04/20","07:40",0.0,9.9,78.4,1012.8,297.9,1.7,3.3,304.1,0.13,6.4,11.1,"07:35:44",1
"19/04/20","07:50",0.0,10.5,75.8,1013.3,310.0,1.7,3.2,326.5,0.16,6.5,11.3,"07:41:28",1
"19/04/20","08:00",0.0,11.1,72.2,1013.3,291.1,1.2,3.2,333.2,0.19,6.3,11.4,"07:58:24",1
"19/04/20","08:10",0.0,11.4,70.4,1013.0,251.2,0.7,2.1,322.7,0.22,6.3,11.5,"08:00:16",1
"19/04/20","08:20",0.0,11.6,68.0,1013.0,232.5,0.6,1.6,143.8,0.25,5.9,11.7,"08:19:04",1
"19/04/20","08:30",0.0,12.0,69.7,1012.8,178.4,1.1,2.6,204.1,0.28,6.7,11.8,"08:25:20",1
"19/04/20","08:40",0.0,12.1,68.6,1013.3,164.5,1.6,2.8,202.6,0.30,6.5,12.0,"08:32:56",1
"19/04/20","08:50",0.0,12.3,64.2,1012.6,123.2,1.2,2.4,128.5,0.33,5.8,12.2,"08:42:24",1
"19/04/20","09:00",0.0,13.5,62.8,1012.6,286.9,0.6,1.4,313.5,0.36,6.6,12.4,"08:50:02",1
"19/04/20","09:10",0.0,13.3,60.6,1012.3,259.7,1.0,1.8,211.9,0.38,5.9,12.5,"09:03:28",1
"19/04/20","09:20",0.0,13.8,59.7,1012.3,255.4,1.0,2.4,260.8,0.41,6.1,12.7,"09:11:36",1
"19/04/20","09:30",0.0,13.9,55.7,1012.3,72.1,0.8,2.0,105.3,0.43,5.2,12.9,"09:20:32",1
"19/04/20","09:40",0.0,14.3,56.4,1012.3,167.8,1.1,2.5,193.6,0.45,5.8,13.0,"09:38:48",1
"19/04/20","09:50",0.0,14.8,54.4,1012.1,216.2,1.1,2.5,228.1,0.47,5.7,13.4,"09:45:28",1
"19/04/20","10:00",0.0,15.4,52.3,1011.6,214.0,0.7,2.2,152.3,0.49,5.7,13.7,"09:59:36",1
"19/04/20","10:10",0.0,16.0,50.0,1011.4,38.6,0.5,1.8,62.9,0.51,5.6,13.7,"10:09:04",1
"19/04/20","10:20",0.0,16.1,49.2,1011.2,83.5,1.0,2.7,115.4,0.53,5.5,14.1,"10:18:24",1
"19/04/20","10:30",0.0,16.5,47.9,1011.4,95.2,1.1,2.7,167.8,0.55,5.5,14.5,"10:28:24",1
"19/04/20","10:40",0.0,16.8,41.8,1010.9,131.2,0.8,2.0,165.9,0.56,3.8,14.8,"10:35:28",1
"19/04/20","10:50",0.0,16.8,40.2,1010.2,153.9,1.3,2.7,117.6,0.58,3.2,14.8,"10:40:40",1
"19/04/20","11:00",0.0,17.2,38.7,1010.7,153.7,1.2,2.8,115.9,0.59,3.1,15.2,"10:51:36",1
"19/04/20","11:10",0.0,17.7,37.4,1010.7,171.6,1.2,3.1,112.2,0.60,3.0,15.5,"11:02:00",1
"19/04/20","11:20",0.0,18.3,38.5,1010.4,196.5,2.6,4.7,184.5,0.61,4.0,15.7,"11:10:02",1
"19/04/20","11:30",0.0,18.1,38.2,1010.4,191.7,1.8,3.9,227.7,0.62,3.7,16.0,"11:21:28",1
"19/04/20","11:40",0.0,18.9,40.8,1010.2,212.1,2.1,4.2,209.2,0.62,5.3,16.1,"11:31:04",1
"19/04/20","11:50",0.0,19.2,36.4,1010.0,167.7,2.0,3.4,113.1,0.63,4.0,16.6,"11:42:24",1
"19/04/20","12:00",0.0,19.0,32.4,1010.4,152.1,2.2,4.0,146.6,0.64,2.2,16.7,"11:53:20",1
"19/04/20","12:10",0.0,19.2,26.6,1009.7,120.2,2.1,4.7,52.2,0.64,-0.4,17.1,"12:08:48",1
"19/04/20","12:20",0.0,19.8,30.2,1009.5,162.8,1.5,3.5,161.6,0.64,1.9,17.3,"12:10:02",1
"19/04/20","12:30",0.0,20.5,25.5,1009.3,182.3,1.6,3.3,224.7,0.65,0.1,17.4,"12:26:32",1
"19/04/20","12:40",0.0,20.4,28.3,1008.8,180.8,1.1,2.9,170.3,0.65,1.5,18.0,"12:32:24",1
"19/04/20","12:50",0.0,21.0,23.9,1008.8,117.5,1.7,3.6,120.9,0.64,-0.3,18.2,"12:40:40",1
"19/04/20","13:00",0.0,21.0,26.6,1008.6,279.4,2.0,4.1,208.6,0.64,1.1,18.1,"12:58:32",1
"19/04/20","13:10",0.0,21.6,20.8,1008.8,187.7,1.2,3.2,62.9,0.63,-1.7,18.3,"13:00:02",1
"19/04/20","13:20",0.0,21.5,25.8,1008.3,71.5,1.5,3.5,51.2,0.63,1.1,18.5,"13:11:52",1
"19/04/20","13:30",0.0,21.8,22.8,1008.3,180.5,1.6,3.9,184.5,0.62,-0.3,18.7,"13:29:36",1
"19/04/20","13:40",0.0,22.1,23.6,1008.1,192.0,2.1,4.0,213.6,0.62,0.4,18.8,"13:32:00",1
"19/04/20","13:50",0.0,21.7,19.8,1007.6,167.6,2.3,4.0,119.7,0.60,-2.3,19.0,"13:40:24",1
"19/04/20","14:00",0.0,22.5,26.9,1007.6,195.3,2.2,5.1,220.3,0.59,2.6,19.2,"13:50:56",1
"19/04/20","14:10",0.0,22.5,24.1,1007.4,133.2,2.2,5.4,129.4,0.58,1.0,19.2,"14:00:32",1
"19/04/20","14:20",0.0,22.3,25.5,1007.4,193.5,2.1,5.2,205.0,0.56,1.7,19.2,"14:14:24",1
"19/04/20","14:30",0.0,22.6,24.5,1007.1,115.3,1.8,3.7,118.1,0.55,1.4,19.5,"14:28:32",1
"19/04/20","14:40",0.0,22.3,20.5,1007.1,141.0,1.5,3.3,181.8,0.54,-1.4,19.5,"14:32:32",1
"19/04/20","14:50",0.0,23.3,24.1,1007.1,170.0,1.7,3.4,164.8,0.52,1.7,19.6,"14:42:00",1
"19/04/20","15:00",0.0,23.1,21.0,1006.4,151.3,1.7,4.5,127.8,0.50,-0.4,19.7,"14:50:48",1
"19/04/20","15:10",0.0,22.9,23.7,1006.4,143.1,1.8,4.0,115.1,0.48,1.1,19.4,"15:08:48",1
"19/04/20","15:20",0.0,23.6,18.9,1006.4,112.1,1.8,4.5,113.2,0.45,-1.4,19.6,"15:15:20",1
"19/04/20","15:30",0.0,23.4,20.7,1006.2,172.9,2.1,3.4,123.6,0.43,-0.3,19.7,"15:25:20",1
"19/04/20","15:40",0.0,23.0,20.1,1006.2,173.2,1.8,4.1,125.8,0.41,-1.0,19.7,"15:37:28",1
"19/04/20","15:50",0.0,23.3,19.2,1006.4,171.7,2.3,5.0,130.7,0.38,-1.4,19.7,"15:48:48",1
"19/04/20","16:00",0.0,23.6,19.7,1006.2,180.9,1.3,4.0,201.1,0.36,-0.8,19.7,"15:56:16",1
"19/04/20","16:10",0.0,24.2,18.9,1006.0,163.8,1.3,3.1,154.7,0.33,-0.9,19.9,"16:02:40",1
"19/04/20","16:20",0.0,24.3,18.8,1006.0,198.0,1.1,2.4,239.1,0.30,-0.9,19.8,"16:17:12",1
"19/04/20","16:30",0.0,24.6,16.8,1006.0,136.9,0.8,1.8,98.5,0.28,-2.2,19.6,"16:20:16",1
"19/04/20","16:40",0.0,23.7,16.7,1005.7,197.6,3.0,6.2,202.6,0.25,-3.0,19.6,"16:38:32",1
"19/04/20","16:50",0.0,23.8,16.5,1006.0,200.5,3.1,5.0,215.0,0.23,-3.1,19.5,"16:43:04",1
"19/04/20","17:00",0.0,23.6,16.2,1005.7,176.2,2.2,3.9,168.1,0.20,-3.5,19.3,"16:51:12",1
"19/04/20","17:10",0.0,23.5,17.9,1006.2,185.6,2.5,4.2,189.4,0.17,-2.2,19.2,"17:08:40",1
"19/04/20","17:20",0.0,23.4,18.3,1005.7,201.4,2.3,4.0,194.8,0.14,-2.0,18.9,"17:15:12",1
"19/04/20","17:30",0.0,23.2,16.9,1006.0,188.5,2.1,3.5,193.7,0.12,-3.2,18.8,"17:22:48",1
"19/04/20","17:40",0.0,23.0,18.0,1006.0,206.2,2.5,4.5,210.2,0.09,-2.5,18.7,"17:36:40",1
"19/04/20","17:50",0.0,22.6,18.9,1005.5,187.6,2.3,3.9,200.2,0.07,-2.2,18.7,"17:49:20",1
"19/04/20","18:00",0.0,22.6,19.1,1006.0,198.6,2.3,5.0,184.2,0.05,-2.1,18.4,"17:52:56",1
"19/04/20","18:10",0.0,22.1,22.7,1006.0,198.1,2.3,4.5,231.5,0.03,-0.1,18.4,"18:08:40",1
"19/04/20","18:20",0.0,21.6,26.6,1006.4,212.2,2.1,3.3,205.0,0.01,1.6,18.2,"18:18:24",1
"19/04/20","18:30",0.0,21.1,30.5,1006.2,206.0,1.7,2.9,193.8,0.00,3.1,18.0,"18:22:56",1
"19/04/20","18:40",0.0,20.3,32.7,1005.7,234.2,1.0,2.0,214.5,0.00,3.4,18.0,"18:31:44",1
"19/04/20","18:50",0.0,19.4,34.7,1006.4,327.3,1.3,2.4,343.5,0.00,3.5,17.9,"18:45:20",1
"19/04/20","19:00",0.0,18.2,37.2,1006.7,331.6,1.3,2.4,341.1,0.00,3.4,17.6,"18:54:00",1
"19/04/20","19:10",0.0,17.4,39.6,1006.9,307.9,1.5,2.5,334.8,0.00,3.6,17.4,"19:06:48",1
"19/04/20","19:20",0.0,16.5,40.9,1006.9,311.7,1.8,2.9,319.1,0.00,3.2,17.1,"19:14:08",1
"19/04/20","19:30",0.0,15.9,44.1,1007.1,323.5,1.1,2.4,339.1,0.00,3.7,17.3,"19:23:44",1
"19/04/20","19:40",0.0,15.3,45.5,1006.9,305.5,0.8,1.6,314.7,0.00,3.6,17.1,"19:36:40",1
"19/04/20","19:50",0.0,15.2,47.7,1007.4,337.6,0.8,1.6,326.0,0.00,4.2,16.5,"19:46:56",1
"19/04/20","20:00",0.0,14.9,50.1,1007.6,327.3,1.2,1.9,343.6,0.00,4.6,16.6,"19:57:28",1
"19/04/20","20:10",0.0,14.4,54.1,1007.4,278.1,0.8,1.2,313.7,0.00,5.3,16.4,"20:09:28",1
"19/04/20","20:20",0.0,14.4,55.2,1007.6,328.6,1.6,2.1,333.2,0.00,5.6,16.3,"20:16:56",1
"19/04/20","20:30",0.0,13.8,58.3,1007.8,294.5,1.0,1.8,331.9,0.00,5.8,16.2,"20:21:28",1
"19/04/20","20:40",0.0,13.9,60.2,1007.8,303.4,1.5,2.4,330.7,0.00,6.4,16.1,"20:33:54",1
"19/04/20","20:50",0.0,13.7,61.5,1008.3,296.3,1.3,2.9,342.7,0.00,6.5,16.0,"20:49:10",1
"19/04/20","21:00",0.0,13.2,64.4,1008.3,297.5,1.1,2.4,340.0,0.00,6.7,15.9,"20:50:40",1
"19/04/20","21:10",0.0,13.0,66.1,1008.6,296.8,1.5,1.9,307.1,0.00,6.9,15.6,"21:02:10",1
"19/04/20","21:20",0.0,13.3,65.7,1008.8,306.3,1.5,2.4,333.6,0.00,7.1,15.8,"21:14:24",1
"19/04/20","21:30",0.0,13.5,65.3,1009.0,309.4,1.6,2.5,343.5,0.00,7.2,15.6,"21:24:42",1
"19/04/20","21:40",0.0,13.2,66.2,1009.5,289.4,1.1,2.1,311.7,0.00,7.1,15.5,"21:36:58",1
"19/04/20","21:50",0.0,13.1,66.7,1009.3,307.5,1.7,3.2,331.4,0.00,7.1,15.4,"21:42:48",1
"19/04/20","22:00",0.0,12.9,67.3,1009.3,316.6,1.5,2.6,341.5,0.00,7.0,15.1,"21:52:40",1
"19/04/20","22:10",0.0,12.7,69.3,1009.3,305.9,1.3,2.1,327.7,0.00,7.3,15.3,"22:01:48",1
"19/04/20","22:20",0.0,12.7,70.6,1009.3,315.7,1.5,2.4,323.3,0.00,7.5,15.2,"22:16:24",1
"19/04/20","22:30",0.0,12.4,70.6,1009.7,317.5,1.3,1.9,314.4,0.00,7.3,15.0,"22:27:18",1
"19/04/20","22:40",0.0,12.3,72.5,1009.3,321.2,1.3,1.9,314.8,0.00,7.5,14.8,"22:39:42",1
"19/04/20","22:50",0.0,12.4,74.6,1009.3,317.2,2.3,2.9,314.8,0.00,8.1,14.7,"22:42:18",1
"19/04/20","23:00",0.0,12.3,76.6,1009.0,288.3,1.5,2.2,259.3,0.00,8.4,14.7,"22:58:08",1
"19/04/20","23:10",0.0,12.6,77.2,1009.5,302.0,1.5,2.7,320.2,0.00,8.8,14.8,"23:08:04",1
"19/04/20","23:20",0.0,12.5,76.7,1009.3,325.4,1.2,1.8,331.6,0.00,8.6,14.4,"23:10:24",1
"19/04/20","23:30",0.0,12.2,78.5,1009.3,315.0,1.3,2.5,333.8,0.00,8.6,14.7,"23:29:46",1
"19/04/20","23:40",0.0,12.1,79.9,1009.0,308.1,1.2,2.1,332.2,0.00,8.8,14.5,"23:30:32",1
"19/04/20","23:50",0.0,12.0,80.2,1009.5,309.7,1.5,1.9,320.4,0.00,8.7,14.4,"23:46:40",1
"19/04/20","24:00",0.0,11.8,81.0,1009.3,324.0,1.5,2.1,313.5,0.00,8.7,14.3,"23:58:08",1
